Falfurrias, TX

9:51 AM CST on December 06, 2019 (GMT -0600)
Falfurrias

Weather History for KBKS - August, 2019

Change the Weather History Date:

Friday, August 23, 2019

  Actual Average (KNQI) Record (KNQI)
Temperature  
Mean Temperature 89 °F -  
Max Temperature 103 °F 92 °F 105 °F (2010)
Min Temperature 77 °F 73 °F 72 °F (2017)
Cooling Degree Days 24    
Growing Degree Days 39 (Base 50)    
Moisture  
Dew Point 74 °F    
Average Humidity 66    
Maximum Humidity 91    
Minimum Humidity 32    
Precipitation  
Precipitation 0.00 in - - ()
Sea Level Pressure  
Sea Level Pressure 29.84 in    
Wind  
Wind Speed 5 mph ()    
Max Wind Speed 17 mph    
Max Gust Speed 25 mph    
Visibility 9.9 miles    
Events      
Averages and records for this station are not official NWS values.
T = Trace of Precipitation, MM = Missing Value Source: Averaged Metar Reports

Daily Weather History Graph

Daily Weather History Graph

Search for Another Location

Airport or City:

Astronomy

Aug. 23, 2019 Rise Set
Actual Time 7:07 AM CDT 8:02 PM CDT
Civil Twilight 6:43 AM CDT 8:26 PM CDT
Nautical Twilight 6:15 AM CDT 8:54 PM CDT
Astronomical Twilight 5:45 AM CDT 9:23 PM CDT
Moon 12:31 AM CDT (8/23) 2:05 PM CDT (8/23)
Length of Visible Light 13h 42m
Length of Day
12h 54m
Waning Gibbous, 49% of the Moon is Illuminated
Aug 23
Waning Gibbous
Aug 30
New
Sep 5
First Quarter
Sep 13
Full
Sep 21
Last Quarter

Hourly Weather History & Observations

Time (CDT) Temp. Heat Index Dew Point Humidity Pressure Visibility Wind Dir Wind Speed Gust Speed Precip Events Conditions
12:15 AM 82.4 °F 89.0 °F 74.7 °F 77% 29.88 in 10.0 mi ESE 4.6 mph - N/A   Clear
12:35 AM 81.5 °F 87.4 °F 74.5 °F 79% 29.88 in 10.0 mi ESE 3.5 mph - N/A   Clear
12:55 AM 81.3 °F 87.2 °F 74.7 °F 80% 29.88 in 10.0 mi East 3.5 mph - N/A   Clear
1:15 AM 81.3 °F 87.4 °F 74.8 °F 81% 29.88 in 10.0 mi Calm Calm - N/A   Clear
1:35 AM 81.0 °F 86.7 °F 74.8 °F 82% 29.88 in 10.0 mi ESE 3.5 mph - N/A   Clear
1:55 AM 80.6 °F 85.9 °F 74.7 °F 82% 29.88 in 10.0 mi Calm Calm - N/A   Clear
2:15 AM 80.1 °F 84.8 °F 74.7 °F 83% 29.87 in 10.0 mi Calm Calm - N/A   Clear
2:35 AM 80.1 °F 84.8 °F 74.7 °F 83% 29.87 in 10.0 mi Calm Calm - N/A   Clear
2:55 AM 79.7 °F - 74.5 °F 84% 29.87 in 10.0 mi ESE 3.5 mph - N/A   Clear
3:15 AM 79.3 °F - 74.7 °F 86% 29.87 in 10.0 mi Calm Calm - N/A   Clear
3:35 AM 79.0 °F - 74.5 °F 86% 29.87 in 10.0 mi Calm Calm - N/A   Clear
3:55 AM 79.2 °F - 74.8 °F 87% 29.86 in 10.0 mi ESE 3.5 mph - N/A   Clear
4:15 AM 79.0 °F - 75.2 °F 88% 29.86 in 10.0 mi ESE 3.5 mph - N/A   Clear
4:35 AM 78.8 °F - 75.0 °F 88% 29.86 in 10.0 mi East 4.6 mph - N/A   Clear
4:55 AM 79.0 °F - 75.2 °F 88% 29.85 in 10.0 mi ESE 4.6 mph - N/A   Clear
5:15 AM 79.0 °F - 75.2 °F 88% 29.86 in 10.0 mi ESE 3.5 mph - N/A   Clear
5:35 AM 78.8 °F - 75.2 °F 89% 29.86 in 10.0 mi East 3.5 mph - N/A   Clear
5:55 AM 78.4 °F - 75.2 °F 90% 29.87 in 10.0 mi East 3.5 mph - N/A   Clear
6:15 AM 77.9 °F - 74.7 °F 90% 29.87 in 10.0 mi East 3.5 mph - N/A   Clear
6:35 AM 77.9 °F - 74.7 °F 90% 29.88 in 10.0 mi East 3.5 mph - N/A   Clear
6:55 AM 77.7 °F - 74.5 °F 90% 29.88 in 10.0 mi East 3.5 mph - N/A   Clear
7:15 AM 77.5 °F - 74.7 °F 91% 29.88 in 7.0 mi Calm Calm - N/A   Clear
7:35 AM 77.7 °F - 74.8 °F 91% 29.88 in 7.0 mi East 3.5 mph - N/A   Clear
7:55 AM 79.0 °F - 75.6 °F 89% 29.88 in 7.0 mi ESE 3.5 mph - N/A   Clear
8:15 AM 80.6 °F 86.6 °F 76.1 °F 86% 29.88 in 10.0 mi East 4.6 mph - N/A   Clear
8:35 AM 83.3 °F 91.8 °F 76.3 °F 79% 29.88 in 10.0 mi ESE 4.6 mph - N/A   Clear
8:55 AM 85.3 °F 95.4 °F 76.5 °F 75% 29.88 in 10.0 mi SE 4.6 mph - N/A   Clear
9:15 AM 87.1 °F 98.3 °F 76.5 °F 71% 29.87 in 10.0 mi SE 8.1 mph - N/A   Clear
9:35 AM 88.2 °F 99.0 °F 76.1 °F 67% 29.87 in 10.0 mi SSE 8.1 mph - N/A   Clear
9:55 AM 90.0 °F 100.2 °F 74.7 °F 61% 29.87 in 10.0 mi SSE 8.1 mph - N/A   Clear
10:15 AM 91.2 °F 100.8 °F 74.3 °F 57% 29.87 in 10.0 mi South 8.1 mph - N/A   Clear
10:35 AM 92.1 °F 101.7 °F 73.8 °F 55% 29.87 in 10.0 mi South 8.1 mph - N/A   Clear
10:55 AM 92.5 °F 101.9 °F 73.4 °F 54% 29.86 in 10.0 mi South 4.6 mph - N/A   Scattered Clouds
11:15 AM 92.8 °F 102.2 °F 73.4 °F 53% 29.86 in 10.0 mi SSE 3.5 mph - N/A   Scattered Clouds
11:35 AM 93.2 °F 101.1 °F 72.0 °F 50% 29.85 in 10.0 mi Calm Calm - N/A   Mostly Cloudy
11:55 AM 96.4 °F 105.0 °F 72.0 °F 45% 29.85 in 10.0 mi SSE 4.6 mph - N/A   Mostly Cloudy
12:15 PM 97.0 °F 105.5 °F 71.6 °F 44% 29.84 in 10.0 mi SSE 5.8 mph - N/A   Scattered Clouds
12:35 PM 97.0 °F 105.5 °F 71.6 °F 44% 29.84 in 10.0 mi SE 5.8 mph - N/A   Scattered Clouds
12:55 PM 97.0 °F 103.5 °F 69.8 °F 41% 29.83 in 10.0 mi SSE 5.8 mph - N/A   Scattered Clouds
1:15 PM 98.8 °F 104.5 °F 68.0 °F 37% 29.83 in 10.0 mi SE 4.6 mph - N/A   Scattered Clouds
1:35 PM 100.2 °F 106.7 °F 68.7 °F 36% 29.83 in 10.0 mi ENE 4.6 mph - N/A   Scattered Clouds
1:55 PM 100.6 °F 107.4 °F 69.1 °F 36% 29.82 in 10.0 mi South 10.4 mph - N/A   Scattered Clouds
2:15 PM 101.3 °F 107.4 °F 68.4 °F 34% 29.82 in 10.0 mi SE 10.4 mph - N/A   Mostly Cloudy
2:35 PM 101.3 °F 105.9 °F 66.7 °F 32% 29.81 in 10.0 mi East 4.6 mph 9.2 mph N/A   Mostly Cloudy
2:55 PM 99.5 °F 108.1 °F 71.2 °F 40% 29.80 in 10.0 mi ENE 15.0 mph 18.4 mph N/A   Overcast
3:15 PM 98.6 °F 108.4 °F 72.3 °F 43% 29.80 in 10.0 mi East 12.7 mph 18.4 mph N/A   Overcast
3:35 PM 99.5 °F 108.9 °F 72.0 °F 41% 29.79 in 10.0 mi ESE 9.2 mph 19.6 mph N/A   Mostly Cloudy
3:55 PM 99.1 °F 108.1 °F 72.0 °F 41% 29.78 in 10.0 mi ESE 11.5 mph 19.6 mph N/A   Mostly Cloudy
4:15 PM 99.1 °F 108.9 °F 72.1 °F 42% 29.78 in 10.0 mi East 15.0 mph 19.6 mph N/A   Mostly Cloudy
4:35 PM 98.6 °F 107.7 °F 72.0 °F 42% 29.77 in 10.0 mi East 17.3 mph 24.2 mph N/A   Overcast
4:55 PM 98.8 °F 108.1 °F 72.1 °F 42% 29.77 in 10.0 mi East 15.0 mph 23.0 mph N/A   Mostly Cloudy
5:15 PM 97.7 °F 106.4 °F 72.0 °F 43% 29.78 in 10.0 mi ESE 13.8 mph 20.7 mph N/A   Scattered Clouds
5:35 PM 95.4 °F 104.0 °F 72.1 °F 47% 29.78 in 10.0 mi East 11.5 mph - N/A   Scattered Clouds
5:55 PM 95.7 °F 104.8 °F 72.7 °F 47% 29.78 in 10.0 mi East 12.7 mph 21.9 mph N/A   Scattered Clouds
6:15 PM 94.1 °F 103.1 °F 72.9 °F 50% 29.79 in 10.0 mi ESE 16.1 mph 25.3 mph N/A   Clear
6:35 PM 93.4 °F 102.8 °F 73.2 °F 52% 29.80 in 10.0 mi ESE 16.1 mph 24.2 mph N/A   Clear
6:55 PM 92.7 °F 102.4 °F 73.6 °F 54% 29.80 in 10.0 mi ESE 15.0 mph 24.2 mph N/A   Clear
7:15 PM 91.4 °F 101.3 °F 74.3 °F 57% 29.80 in 10.0 mi ESE 17.3 mph 21.9 mph N/A   Clear
7:35 PM 90.1 °F 99.4 °F 74.1 °F 59% 29.81 in 10.0 mi East 15.0 mph - N/A   Clear
7:55 PM 89.2 °F 99.0 °F 74.5 °F 62% 29.82 in 10.0 mi ESE 6.9 mph 18.4 mph N/A   Clear
8:15 PM 88.3 °F 97.9 °F 74.7 °F 64% 29.82 in 10.0 mi ESE 13.8 mph - N/A   Clear
8:35 PM 87.4 °F 97.2 °F 75.4 °F 67% 29.81 in 10.0 mi ESE 13.8 mph - N/A   Clear
8:55 PM 86.9 °F 96.8 °F 75.7 °F 69% 29.81 in 10.0 mi ESE 12.7 mph 16.1 mph N/A   Clear
9:15 PM 86.2 °F 96.0 °F 75.7 °F 71% 29.82 in 10.0 mi ESE 8.1 mph - N/A   Clear
9:35 PM 86.0 °F 95.5 °F 75.7 °F 71% 29.84 in 10.0 mi SE 9.2 mph - N/A   Clear
9:55 PM 85.8 °F 95.5 °F 75.9 °F 72% 29.85 in 10.0 mi SE 5.8 mph - N/A   Clear
10:15 PM 85.5 °F 95.0 °F 76.1 °F 73% 29.87 in 10.0 mi ESE 5.8 mph - N/A   Clear
10:35 PM 85.1 °F 94.5 °F 76.1 °F 74% 29.87 in 10.0 mi SE 5.8 mph - N/A   Clear
10:55 PM 84.7 °F 94.0 °F 76.1 °F 75% 29.87 in 10.0 mi ESE 5.8 mph - N/A   Clear
11:15 PM 84.2 °F 93.4 °F 76.1 °F 77% 29.86 in 10.0 mi East 4.6 mph - N/A   Clear
11:35 PM 83.5 °F 91.9 °F 76.1 °F 78% 29.88 in 10.0 mi East 3.5 mph - N/A   Clear
11:55 PM 83.1 °F 91.3 °F 76.1 °F 79% 29.88 in 10.0 mi East 3.5 mph - N/A   Clear